Theta_e
305 304 304 303 303 304 303 302 301 299 299 299 300 301 302 302 303 303 303 303 303 303 303 303 303 303 303 303 303 303 303 303 302 302 301 301 301 300 300 299 299 298 296 295 294 294 293 293 293 293 293 293 293 293 293 294 294 294 294 294 294 294 294 294 293 292 292 291 291 291 291 291 290 290 290 290 290 290 290 290 290 290 290 290 290
303 303 303 303 303 303 303 304 303 302 301 300 300 300 300 301 301 301 302 302 302 302 302 302 302 302 302 302 302 302 302 302 302 302 302 301 301 300 300 300 299 298 297 296 295 294 293 293 292 292 292 292 293 293 293 293 293 293 294 294 294 294 294 293 293 292 291 291 291 290 290 290 290 290 290 290 290 289 289 289 290 290 290 290 290
301 302 302 303 303 302 302 303 303 303 303 303 302 301 300 300 300 300 301 301 301 301 301 301 301 301 301 301 301 301 301 301 301 302 302 302 301 300 300 300 300 299 298 297 296 295 293 293 292 292 292 292 292 292 292 293 293 293 293 293 293 293 293 293 293 292 291 291 290 290 290 290 290 289 289 289 289 289 289 289 290 290 290 290 290
298 299 300 301 302 302 302 302 301 302 302 302 302 302 301 300 299 299 299 299 299 300 300 300 300 300 300 301 301 300 300 300 300 300 301 302 301 301 300 300 300 299 299 298 297 296 294 293 293 292 292 292 292 292 292 292 292 293 293 293 293 293 293 293 292 292 291 291 290 290 290 289 289 289 289 290 290 290 290 290 290 290 290 290 290
295 296 298 299 300 301 301 301 301 300 301 301 301 301 301 300 299 298 298 298 298 298 298 299 299 299 299 300 300 300 300 300 299 299 300 300 301 301 300 300 299 299 299 299 298 297 296 294 293 292 292 292 292 292 292 292 292 292 292 292 292 293 293 292 292 292 291 291 291 290 290 289 289 289 289 290 290 290 290 290 290 290 290 290 290
293 294 295 296 298 299 300 300 300 300 300 300 299 299 299 300 300 299 298 297 297 297 297 297 298 298 299 299 299 299 299 299 299 299 299 299 299 300 300 300 299 299 299 299 299 298 297 296 294 293 292 292 292 292 292 292 292 292 292 292 292 292 292 292 292 291 291 290 290 290 289 289 289 289 289 290 290 290 290 289 290 290 290 290 290
293 293 293 294 295 296 297 298 298 299 299 299 299 299 298 298 299 299 299 298 297 296 296 296 296 297 298 298 298 298 298 298 299 299 298 298 298 299 299 300 299 299 299 298 298 298 298 297 295 294 293 292 292 292 292 292 292 292 292 292 292 292 292 292 291 290 290 290 290 289 289 289 289 289 289 289 289 289 289 289 289 289 289 289 289
291 292 292 292 293 293 293 294 295 296 297 297 298 298 298 298 298 298 298 298 297 296 295 295 295 296 296 297 297 297 297 297 298 298 298 298 297 297 298 299 299 299 298 298 297 297 297 297 296 295 294 293 292 292 292 292 292 292 292 292 292 292 292 291 291 290 290 289 289 289 288 288 288 288 288 289 289 288 288 288 288 288 288 288 288
290 291 291 291 292 292 292 292 293 294 295 296 296 297 297 298 298 297 297 297 297 297 295 295 294 294 295 295 295 296 296 296 297 297 297 297 297 297 297 297 298 298 298 298 297 297 296 296 296 296 295 294 292 292 291 292 292 292 292 291 291 291 291 291 290 290 289 289 289 289 288 288 288 288 288 288 288 287 287 287 287 287 287 287 287
289 289 290 290 291 291 291 292 292 293 293 294 295 295 296 296 297 297 297 297 296 296 296 295 294 293 294 294 294 294 295 295 295 295 296 296 296 296 296 296 297 297 298 298 297 297 296 295 295 296 295 294 293 291 291 291 291 291 291 291 291 291 291 291 290 289 289 289 289 288 288 288 288 288 287 287 287 287 287 287 287 286 286 286 286
288 288 289 289 289 290 290 291 292 292 293 293 293 294 294 295 296 296 297 297 297 296 295 295 294 293 293 293 293 294 294 294 294 294 295 295 295 295 295 295 295 296 297 297 297 297 296 295 294 294 294 293 292 291 291 290 290 290 290 290 290 290 290 290 290 289 289 289 288 288 288 288 288 287 286 286 286 286 286 286 286 286 285 285 285
288 288 288 288 288 288 289 290 291 291 292 293 293 293 292 293 294 295 296 297 297 297 296 295 294 294 293 292 293 293 293 293 293 294 294 294 294 294 294 294 294 295 295 296 296 296 296 295 294 293 293 293 291 290 290 290 290 289 289 289 289 289 289 289 289 288 288 288 288 287 287 287 287 286 286 286 286 286 286 286 286 285 285 284 285
287 287 287 287 287 287 288 288 288 289 290 291 292 292 292 292 292 293 294 295 296 297 297 296 294 293 293 292 292 292 292 293 292 293 293 293 293 293 293 293 293 294 294 295 295 295 295 295 294 293 293 292 291 290 289 289 289 289 289 288 288 288 288 287 287 287 287 287 287 287 287 286 286 286 286 286 286 286 286 285 285 285 284 284 284
287 287 286 287 287 287 287 287 287 287 288 288 289 290 291 292 291 291 292 293 294 295 296 296 295 293 292 292 292 292 292 292 292 292 292 292 292 292 292 292 292 293 293 293 294 294 294 294 294 293 292 292 291 290 289 288 288 288 288 288 288 288 287 287 287 287 287 287 286 286 286 285 285 285 285 285 285 285 285 285 285 284 284 284 284
286 286 286 286 286 286 286 286 286 286 286 287 287 288 289 290 290 291 291 291 292 293 294 295 295 294 292 291 292 292 292 291 291 291 291 291 291 291 291 291 292 292 292 292 293 293 293 293 293 292 292 292 292 291 290 289 288 288 288 288 288 288 287 287 287 287 287 287 286 286 286 285 285 285 285 285 285 285 284 284 284 284 283 283 283
286 286 286 286 286 286 286 286 286 286 286 286 286 286 287 287 288 289 290 290 291 291 292 293 294 294 293 291 291 291 291 291 291 291 291 290 290 290 290 290 291 291 291 291 291 292 292 292 292 291 291 291 291 290 290 289 288 288 288 288 288 288 287 287 287 287 287 286 286 286 286 285 285 284 284 285 284 284 283 284 284 283 282 282 283
286 285 285 285 286 286 285 285 285 286 286 286 286 286 286 286 287 287 288 289 290 290 290 291 291 293 293 293 291 291 291 291 291 291 290 290 290 289 289 289 290 290 291 291 291 291 291 291 291 291 290 290 290 289 288 288 287 287 288 288 288 287 287 287 286 286 286 286 286 286 285 285 284 284 284 284 283 283 284 284 283 282 281 281 282
285 285 285 285 285 286 285 285 285 285 285 285 285 285 285 286 286 286 286 287 288 289 289 290 290 291 292 293 293 292 290 290 290 290 290 290 289 289 289 289 289 290 290 290 290 290 290 290 290 290 290 290 289 288 288 287 287 287 287 287 287 287 287 286 286 286 286 285 285 285 284 284 283 282 283 284 283 283 283 283 282 281 280 280 281
285 284 284 285 285 285 285 285 285 285 285 285 285 285 285 285 285 285 285 285 286 287 287 289 290 290 290 291 292 293 292 290 289 289 289 289 289 289 288 288 288 289 289 289 289 289 289 289 289 289 289 289 288 288 287 287 286 286 287 287 287 287 287 287 286 286 286 285 285 284 284 283 283 282 283 284 283 282 282 281 281 281 280 280 280
284 284 284 284 284 285 285 285 285 285 285 285 285 285 285 285 285 285 285 285 285 285 286 287 288 289 290 290 291 292 293 292 290 288 288 289 289 289 288 288 288 288 288 288 288 289 289 289 288 288 288 287 287 286 286 286 286 286 286 287 287 287 287 287 286 285 285 285 284 284 284 283 283 283 283 283 282 281 281 281 281 280 280 280 280
283 283 283 284 284 284 284 284 284 284 284 284 285 285 285 285 285 284 284 284 285 285 285 285 286 287 289 289 290 291 292 293 292 289 288 288 288 288 288 288 288 288 288 288 288 288 288 288 288 287 286 286 285 285 285 285 285 285 285 286 286 287 287 286 285 285 284 284 283 283 283 283 283 283 282 282 281 281 280 280 280 280 279 279 279
283 283 283 284 284 284 284 284 284 284 284 284 284 284 285 285 285 285 284 284 284 284 285 285 285 286 287 288 289 290 290 292 293 292 289 287 287 287 287 287 288 288 287 287 288 288 288 287 287 287 286 285 285 285 285 284 284 284 285 285 285 285 285 285 284 284 284 283 283 283 283 283 282 282 282 281 281 280 280 280 280 279 279 279 278
282 282 282 283 283 283 283 283 283 284 284 284 284 284 284 284 284 285 284 284 284 284 284 285 285 285 285 286 288 289 290 290 291 293 292 289 287 287 287 286 287 287 287 287 287 287 287 287 287 286 285 285 286 286 285 284 283 284 284 284 284 284 284 284 283 284 283 283 283 283 282 282 282 282 281 281 280 280 280 279 279 279 279 279 278
280 281 281 282 282 282 283 283 283 283 283 283 283 283 284 284 284 284 284 284 284 284 284 284 284 285 285 285 286 288 289 289 290 291 292 291 288 286 286 286 286 286 286 286 286 286 286 286 286 285 285 285 285 285 285 283 282 283 284 284 283 283 283 283 283 283 283 283 282 282 282 282 281 281 281 280 280 279 279 279 279 279 278 278 278
278 279 280 280 281 282 282 282 282 282 282 282 282 282 283 283 283 284 283 283 283 284 284 284 284 284 285 285 285 286 287 288 289 290 291 291 290 287 285 285 286 286 286 286 286 286 285 285 285 285 285 284 284 284 283 282 282 282 283 283 284 284 283 283 282 282 282 282 283 283 282 281 281 280 280 279 279 278 278 278 278 278 278 278 278
276 277 278 279 280 280 280 281 281 281 281 281 281 281 282 282 282 282 282 282 283 283 284 284 284 284 284 285 285 285 286 287 288 289 290 291 291 289 286 285 285 285 285 285 285 285 285 285 284 284 283 283 282 282 281 281 282 283 283 284 284 283 283 282 282 282 282 282 283 282 281 281 280 279 279 278 278 278 278 278 278 278 277 277 278
273 274 275 276 277 277 277 278 279 280 280 280 280 280 281 281 280 280 281 281 281 282 282 283 283 283 283 284 284 285 285 286 287 288 289 290 291 291 288 285 284 285 285 285 285 285 285 284 284 283 282 282 281 281 281 281 282 283 283 283 283 282 282 282 282 282 282 282 282 281 280 280 279 279 278 277 277 277 277 277 278 277 277 277 278
271 271 272 272 273 274 274 274 275 276 277 277 277 278 279 279 279 279 279 279 279 280 281 281 281 282 283 283 283 283 284 285 286 287 288 290 290 291 290 287 285 284 284 285 285 285 285 284 283 282 281 281 281 281 282 282 282 282 282 282 282 281 281 281 281 281 281 281 280 280 279 279 278 278 277 277 277 277 277 277 277 277 277 277 277
268 269 269 269 270 271 271 271 271 272 272 273 274 274 276 276 276 277 279 279 278 278 279 280 280 281 281 282 282 282 283 284 285 286 287 289 289 289 289 288 286 284 284 284 284 284 284 283 283 282 281 280 281 281 281 282 282 282 281 281 281 281 281 281 281 281 281 280 279 279 279 278 278 277 277 277 277 277 277 277 277 277 277 277 277
266 267 267 267 267 268 268 268 269 269 269 270 271 272 273 274 274 274 277 279 279 277 277 278 280 280 281 281 281 282 283 284 285 285 286 288 289 288 288 287 286 284 284 284 284 284 284 283 282 282 282 281 281 281 281 281 281 281 281 280 280 281 281 281 281 281 280 279 278 278 278 278 277 277 276 276 276 276 276 276 276 276 276 276 276
264 264 264 265 265 265 265 266 266 266 267 267 267 268 270 273 274 274 275 276 277 277 277 278 279 279 280 281 281 281 282 283 283 284 285 287 288 288 287 286 285 284 283 283 283 283 283 283 282 282 282 281 281 281 281 281 281 281 281 280 280 280 281 281 280 280 279 278 278 278 278 277 276 276 276 276 276 276 276 276 276 276 276 276 276
262 262 262 262 263 263 263 263 263 264 264 265 265 265 266 268 272 275 275 275 276 276 277 277 278 279 280 281 282 282 282 282 283 283 285 286 287 288 287 286 285 283 283 283 282 282 282 282 282 281 281 281 281 281 280 280 280 280 280 280 280 280 280 280 279 278 278 278 278 277 277 276 276 275 275 276 275 275 275 275 275 275 275 276 276
261 261 261 262 262 262 262 262 262 262 263 263 264 264 265 265 268 271 273 274 274 275 275 276 277 278 279 281 282 282 282 283 282 283 283 285 286 287 286 285 284 283 283 283 282 282 281 281 282 281 281 281 281 280 280 280 280 280 280 280 280 280 280 279 278 278 277 277 277 277 276 276 275 275 275 275 275 275 275 275 275 275 275 276 276
261 261 261 262 262 262 262 262 262 262 263 263 264 264 265 266 267 268 270 271 273 273 274 275 276 277 278 280 281 282 283 283 283 282 282 283 284 285 285 284 284 283 283 283 282 282 281 281 281 281 281 281 280 280 280 280 280 280 280 280 280 280 279 279 278 277 277 277 277 276 275 275 275 275 275 275 275 275 275 275 275 275 275 275 275
261 261 261 261 262 262 262 262 262 262 263 263 263 264 265 266 267 268 269 271 272 273 274 275 275 276 277 278 280 281 282 283 283 283 282 282 283 283 283 282 282 283 283 283 282 282 281 281 281 281 281 281 280 280 280 280 280 280 280 280 280 279 279 278 278 278 277 276 276 275 275 274 274 275 275 275 275 275 275 275 275 275 275 275 275
260 260 260 261 261 261 262 262 262 262 262 263 263 264 265 265 266 267 268 269 270 271 272 273 274 276 276 277 278 280 282 282 283 283 282 282 282 282 282 282 282 282 283 283 282 282 281 281 281 281 281 281 281 281 280 280 280 280 280 280 280 279 278 278 277 277 276 276 275 275 274 274 274 275 275 275 274 274 274 274 274 274 274 274 274
259 260 260 260 261 261 261 262 262 262 263 264 265 265 266 267 267 268 268 268 269 270 271 272 273 274 275 276 277 278 280 281 282 282 282 282 281 281 281 281 282 282 282 282 282 281 281 281 281 281 281 281 281 281 280 280 280 280 280 279 279 278 278 277 277 276 276 275 275 274 274 274 274 274 274 274 274 274 274 274 274 274 274 274 274
260 260 260 260 260 260 261 261 262 262 263 264 265 266 266 267 268 268 269 269 270 271 271 272 273 273 274 275 276 277 279 280 282 282 282 281 281 281 281 281 281 282 282 282 282 281 281 281 280 280 281 281 281 281 281 280 280 279 279 278 278 277 277 277 276 276 276 275 275 274 274 274 274 274 274 274 274 274 274 274 273 273 273 273 273
261 261 261 261 261 261 261 261 261 262 263 263 264 265 265 266 267 268 269 270 271 272 272 272 273 274 274 275 276 277 278 279 281 282 282 281 281 281 281 281 281 281 282 282 282 281 281 280 280 280 280 281 281 282 281 280 279 279 279 278 277 277 276 276 276 276 275 275 274 274 274 274 274 274 274 274 274 274 273 273 273 273 273 273 273
261 261 262 262 261 261 261 261 261 262 263 264 264 265 266 266 267 268 269 270 271 272 272 272 273 274 275 276 276 277 278 279 280 281 282 281 280 280 280 281 281 281 282 282 282 281 280 280 280 280 280 281 281 281 281 280 279 278 278 277 277 277 276 276 275 275 275 274 274 274 274 274 274 274 274 273 273 273 273 273 273 272 272 272 272
262 262 262 263 262 262 261 262 262 263 263 264 264 265 265 266 267 268 269 270 271 272 273 273 274 275 275 276 277 277 278 278 279 280 281 281 281 280 280 280 281 281 281 282 281 281 280 279 280 280 280 280 281 281 280 279 278 277 277 277 276 276 276 275 275 274 274 274 274 274 273 273 273 273 273 273 273 273 273 272 272 272 271 271 271
262 262 263 263 263 263 263 263 263 263 263 263 263 263 264 265 266 267 268 269 270 272 273 274 274 275 275 276 277 277 278 278 279 279 280 281 281 280 280 280 280 281 281 281 281 280 280 279 280 280 280 280 280 280 278 278 277 277 277 276 276 275 275 275 274 274 274 274 274 273 273 273 273 273 273 273 273 273 272 272 271 271 271 271 270
263 263 264 264 264 264 264 264 264 264 264 264 264 264 264 265 265 266 267 268 270 272 273 274 275 275 276 276 277 277 278 278 279 279 280 280 280 280 280 280 280 280 281 281 281 280 280 280 280 280 280 280 280 279 278 278 277 277 276 276 275 275 274 274 274 274 274 274 273 273 273 273 273 273 273 273 273 272 272 271 271 271 271 270 270
263 264 264 265 265 265 265 266 265 265 265 265 265 265 265 265 265 266 268 269 271 272 273 275 275 275 276 276 276 277 277 278 279 279 280 280 280 280 280 280 280 280 280 280 280 280 280 280 280 279 279 279 278 278 277 277 276 276 275 275 275 274 274 274 274 274 274 273 273 273 273 273 273 273 273 273 272 272 272 271 271 271 271 270 269
264 265 265 265 266 266 266 267 266 266 266 266 265 265 266 266 267 268 269 270 271 273 273 274 275 275 276 276 276 276 277 278 279 279 279 279 280 280 279 279 280 280 280 280 280 280 280 279 279 279 278 277 276 276 275 275 274 274 274 274 274 274 274 274 274 273 273 273 273 273 273 273 273 273 273 272 272 271 271 271 271 270 270 269 268
265 266 266 266 267 267 268 268 268 267 267 267 266 266 267 268 268 269 271 272 272 273 274 274 275 275 275 276 276 276 277 278 279 279 279 279 279 279 279 279 279 279 279 279 279 279 279 278 278 278 278 277 276 275 274 274 274 274 273 273 273 273 273 273 273 273 273 273 273 272 272 272 272 272 272 272 271 271 271 271 270 270 269 268 268
266 266 267 267 267 268 269 269 269 269 268 268 268 268 269 269 270 271 272 273 273 273 274 274 275 275 275 275 276 276 277 278 278 279 279 279 279 279 279 279 279 279 279 278 278 278 278 277 277 277 277 276 275 274 274 274 273 273 273 273 273 273 273 273 273 273 272 272 272 272 272 272 272 272 272 272 271 271 270 270 270 269 268 268 268
266 267 267 267 268 268 269 269 269 269 269 269 269 270 270 271 271 272 272 273 273 273 274 274 274 275 275 275 276 276 277 277 278 278 279 279 278 278 278 278 278 278 278 277 277 277 276 276 276 276 275 275 274 274 274 273 273 273 273 273 273 273 273 272 272 272 272 272 272 272 272 272 272 272 271 271 270 270 270 269 269 268 268 268 268
266 267 267 267 268 268 269 269 269 270 270 270 270 271 271 271 272 272 273 273 273 273 274 274 274 274 275 275 276 276 276 277 278 278 278 278 278 277 277 277 277 277 277 276 276 276 275 275 274 274 274 273 273 273 273 273 273 272 272 272 272 272 272 272 272 272 272 272 272 272 272 272 272 271 271 270 270 270 269 269 268 267 267 267 268
267 267 267 267 268 268 269 269 269 270 270 270 271 271 271 272 272 272 272 273 273 273 273 274 274 274 275 275 275 276 276 277 277 277 277 277 277 276 276 276 276 276 276 276 275 275 274 274 273 273 273 273 273 272 272 272 272 272 272 272 272 272 272 272 272 272 272 272 272 272 272 271 271 270 270 270 270 269 268 268 267 267 267 267 267
267 267 267 268 268 268 268 269 269 269 270 270 270 271 271 271 272 272 272 272 273 273 273 273 274 274 274 275 275 275 276 276 276 276 276 276 276 275 276 276 276 276 275 275 274 274 273 273 273 273 272 272 272 272 272 272 272 272 272 272 272 272 272 272 272 272 272 272 272 271 271 271 270 270 270 269 268 268 267 267 267 267 267 267 267
Wind_Speed
26 26 26 25 24 23 22 20 18 20 23 25 28 28 29 31 31 32 35 37 39 41 42 43 43 44 44 43 43 43 43 43 44 45 47 49 50 51 51 51 52 53 53 53 53 53 52 52 51 49 48 47 45 43 41 39 37 34 33 31 30 28 27 26 25 24 25 24 22 20 19 19 19 19 18 15 15 14 13 14 14 14 15 14 14
26 26 26 25 25 24 23 22 20 19 20 21 23 25 28 30 30 32 34 35 37 40 42 43 44 44 45 45 45 45 45 44 44 44 46 48 49 51 52 52 52 53 54 55 54 54 54 53 53 51 50 49 47 45 43 41 38 36 35 34 32 30 29 27 25 25 26 26 24 22 20 19 20 20 18 16 15 15 14 15 16 15 15 15 14
27 26 25 25 25 24 23 22 21 21 21 21 21 22 23 26 28 30 32 33 35 38 41 42 43 44 45 46 47 47 47 46 45 44 45 47 48 50 51 52 52 53 55 55 55 55 55 55 54 53 52 51 50 47 45 42 40 39 37 35 34 31 30 29 27 26 26 26 25 23 21 20 19 20 20 17 16 16 16 17 17 17 17 16 15
27 26 26 25 25 25 25 24 23 22 22 22 23 22 22 22 24 26 28 30 33 36 39 42 44 44 45 46 47 48 49 49 48 46 46 46 47 49 50 52 53 54 54 55 55 55 56 56 55 54 54 53 52 49 47 45 43 41 40 37 35 33 31 30 29 28 27 27 26 25 23 21 21 21 21 19 18 18 18 19 19 19 19 17 16
27 26 26 25 25 25 26 27 27 26 25 25 25 24 24 23 23 24 25 27 29 32 36 40 43 44 45 45 46 47 48 49 49 49 48 48 47 49 50 52 53 53 54 54 55 55 56 56 56 55 55 55 53 52 50 48 46 44 42 39 37 35 33 32 31 30 29 28 28 27 24 23 23 22 22 22 21 20 20 20 21 20 20 18 17
30 29 27 26 25 25 25 26 27 28 28 28 27 26 26 26 26 25 25 25 27 29 33 37 41 43 43 44 46 46 46 48 49 50 50 49 49 49 50 52 53 53 54 54 55 55 56 56 56 56 56 56 55 53 51 50 48 46 44 41 38 36 35 34 33 32 31 29 28 28 26 25 24 23 23 22 21 21 21 21 21 20 20 19 18
32 32 31 29 27 26 25 25 26 26 27 28 28 28 26 26 27 28 27 27 27 28 31 35 39 40 41 43 46 47 47 47 49 50 51 51 51 50 50 52 53 54 54 55 56 56 56 56 56 57 57 56 55 54 53 51 50 47 45 42 39 38 37 36 35 34 32 30 29 29 28 27 25 24 23 23 22 21 22 22 21 20 20 20 19
33 33 32 31 30 29 28 26 25 25 25 26 27 27 27 26 26 27 28 29 28 28 29 32 36 39 41 43 44 46 47 49 50 51 52 52 53 52 52 52 53 54 56 56 57 57 57 56 56 57 56 55 55 54 54 53 51 49 46 43 41 40 38 37 36 35 34 31 30 29 29 28 27 25 24 24 23 22 22 23 22 20 20 21 19
33 33 33 32 32 31 30 29 27 26 26 25 26 27 28 28 27 26 26 29 30 29 29 31 34 37 40 42 44 46 48 50 51 52 53 53 54 54 53 53 54 55 56 56 57 59 59 58 57 56 55 54 54 55 54 53 51 49 48 45 43 41 39 38 38 37 35 33 32 31 30 30 28 27 25 24 22 21 22 23 22 20 20 21 18
32 33 33 33 32 32 32 31 31 30 29 28 27 27 28 28 29 28 27 26 28 29 30 30 32 35 38 41 43 46 49 50 51 52 53 53 54 54 54 54 55 55 55 56 58 60 60 60 58 57 55 55 55 55 55 54 52 50 48 46 44 42 41 41 40 38 37 35 33 32 32 30 29 28 26 24 22 22 22 22 22 21 21 22 18
32 33 33 33 32 32 33 32 32 33 32 31 30 29 29 29 29 30 30 28 26 26 28 29 30 32 35 39 42 45 48 50 50 51 52 53 53 54 54 55 55 55 55 57 59 59 60 61 60 59 58 57 57 57 56 55 53 51 48 45 43 41 41 41 40 39 38 36 34 33 32 30 29 28 26 25 24 23 22 21 22 21 21 22 19
32 33 33 33 33 33 33 33 33 33 33 33 32 31 31 31 30 30 30 30 29 28 27 28 30 30 33 36 40 43 46 47 49 50 51 51 52 53 54 55 55 55 56 57 58 59 59 60 61 61 61 60 59 58 57 56 54 51 48 46 43 41 41 40 39 38 37 36 34 32 31 30 29 28 27 26 24 23 22 22 22 21 22 22 19
31 32 33 34 34 34 33 33 33 33 33 33 33 33 33 32 31 31 31 31 31 31 29 28 29 29 31 34 38 41 43 45 47 48 49 50 51 51 53 54 55 55 56 56 57 58 59 60 61 61 61 61 60 59 59 57 55 52 49 46 45 44 42 41 39 38 36 35 34 32 31 30 29 28 27 25 24 23 23 22 21 21 23 22 20
30 31 32 33 33 34 34 34 34 34 33 33 34 34 34 33 32 32 32 32 32 32 32 31 29 28 29 31 35 38 41 43 45 46 48 49 50 50 51 53 54 55 55 55 56 57 59 60 60 61 61 61 60 60 59 58 56 54 51 49 48 46 45 43 42 40 38 37 35 33 32 31 30 29 27 25 24 23 23 22 21 22 23 21 20
30 31 32 33 33 34 34 35 35 35 34 34 35 34 34 34 33 33 33 33 33 34 34 34 32 29 27 29 32 35 37 40 42 44 46 47 48 49 50 51 53 54 55 55 56 57 58 59 59 60 60 60 59 59 59 59 57 55 53 51 50 48 47 45 43 40 40 39 37 34 33 33 31 29 27 25 25 24 22 22 22 22 22 21 19
30 31 33 34 35 35 35 36 36 36 36 36 36 36 36 35 35 34 34 34 34 34 35 35 35 33 29 28 30 33 34 35 38 42 44 45 46 47 49 50 52 53 54 55 56 57 58 59 59 58 58 58 58 57 58 58 57 56 54 53 51 50 48 46 43 41 40 39 37 35 34 33 31 29 27 25 24 23 23 23 22 22 21 21 20
30 30 32 33 35 35 36 37 38 38 38 39 39 38 38 37 37 36 36 37 36 36 36 37 37 36 34 31 31 32 33 32 33 37 40 43 45 46 47 49 50 52 53 54 55 56 57 58 58 57 57 57 56 55 55 56 57 57 55 54 52 51 49 45 42 41 41 38 36 35 33 33 32 28 26 24 23 24 24 23 22 21 22 22 21
34 33 34 34 34 35 36 37 39 40 40 41 41 41 41 40 39 38 38 38 39 39 39 40 39 38 38 35 33 32 32 31 31 33 36 40 43 45 46 48 50 51 52 53 55 56 57 57 57 57 57 56 54 53 54 55 57 58 57 54 53 52 49 46 43 42 40 38 37 35 34 33 31 27 26 25 24 24 23 22 22 22 22 22 22
38 38 38 38 37 36 36 37 38 40 41 42 42 43 43 42 41 41 40 40 40 40 40 42 42 41 40 38 36 33 32 32 31 33 35 37 40 43 45 47 50 51 51 53 54 55 56 57 57 56 56 55 53 52 53 55 56 57 57 55 54 53 49 45 42 41 41 40 39 37 35 34 31 29 28 25 23 23 22 22 23 23 23 22 21
43 42 42 42 41 39 38 38 38 40 41 43 44 44 45 45 44 44 44 43 43 42 41 42 43 44 42 41 39 36 34 32 31 32 34 36 39 41 43 46 49 50 51 51 52 54 55 56 56 56 55 54 52 51 52 53 54 56 57 56 55 51 46 42 41 41 40 40 39 37 36 35 33 30 26 23 22 23 23 23 24 23 23 22 21
46 46 47 47 47 45 43 42 42 42 42 43 45 45 46 47 47 47 47 46 46 45 43 43 44 45 45 44 42 39 37 34 32 31 32 35 38 40 43 46 48 48 49 50 51 53 54 55 55 54 53 53 51 49 49 51 52 54 55 54 51 46 43 42 42 41 40 38 38 36 35 34 32 28 25 24 24 24 24 24 24 23 22 22 21
48 49 50 50 51 50 49 48 47 46 46 46 47 47 47 48 49 50 50 49 49 48 47 45 44 45 46 46 45 43 39 37 34 32 31 33 36 40 43 46 46 46 48 50 51 52 53 53 53 52 51 51 50 48 48 49 51 53 53 50 47 44 42 41 40 40 40 38 37 36 35 34 31 27 25 25 25 25 25 24 23 22 22 22 22
49 50 51 52 52 53 53 52 52 51 50 50 50 50 50 50 51 51 51 52 51 50 49 48 46 46 46 46 46 45 42 40 37 34 32 32 34 38 41 44 44 44 46 48 49 49 50 50 50 49 49 49 47 46 46 48 51 52 50 48 45 42 41 40 40 40 40 38 36 36 36 34 30 27 26 26 26 25 25 23 22 22 22 22 22
51 53 54 54 55 55 55 55 55 55 55 54 54 54 53 53 54 53 52 52 52 52 51 50 49 48 47 47 47 47 45 43 39 37 35 32 32 36 38 40 43 44 44 44 46 46 47 48 47 46 46 45 44 44 45 48 50 51 48 46 43 42 42 41 41 40 39 37 36 37 36 33 29 27 27 26 25 24 23 22 22 22 22 22 22
53 55 56 57 58 57 57 57 57 57 57 57 57 57 56 56 56 56 54 52 52 53 53 51 50 50 48 48 47 47 47 46 42 39 37 34 32 33 35 37 41 44 44 43 43 44 44 44 43 42 42 42 41 41 43 45 45 46 45 43 42 43 43 42 40 40 39 38 37 37 34 30 27 27 26 24 23 23 22 22 22 21 22 23 22
55 57 59 60 61 61 61 61 61 60 60 59 58 58 58 57 57 56 55 53 52 52 52 51 50 50 49 49 48 46 47 47 45 41 38 35 33 32 33 35 40 43 44 42 41 41 41 41 41 39 39 39 39 41 43 42 39 39 41 41 42 44 43 41 40 40 39 38 38 35 31 28 26 26 25 23 23 23 22 22 21 21 22 23 23
56 58 60 62 63 63 64 64 65 64 63 62 60 59 58 57 55 54 53 52 51 51 51 50 50 49 50 50 48 46 46 46 46 44 40 36 34 32 31 34 38 42 43 42 41 41 40 39 38 37 37 37 38 40 42 42 39 36 37 39 42 43 41 40 39 39 39 38 36 32 29 27 26 25 24 23 22 22 22 21 20 20 21 23 24
55 58 60 62 63 64 64 64 64 64 64 62 59 58 57 55 53 53 53 50 49 49 49 49 49 49 50 50 48 46 46 46 47 46 41 36 34 32 31 33 37 42 44 43 42 41 39 38 36 36 36 38 38 40 42 42 41 38 36 37 40 40 38 37 37 38 37 35 32 29 28 27 25 24 23 22 21 21 21 21 20 21 22 23 24
58 60 62 62 64 64 62 61 61 59 59 58 56 55 55 53 51 52 54 53 50 49 48 49 50 50 50 50 48 47 48 48 47 44 40 35 32 30 30 31 35 42 46 45 42 41 40 39 38 38 39 40 41 42 43 44 44 43 39 37 36 36 37 37 37 37 35 32 29 28 27 25 24 23 22 21 20 21 21 20 20 21 21 22 23
60 62 61 60 60 59 57 57 55 53 52 53 53 54 55 53 50 50 54 56 54 50 47 48 50 49 48 50 50 48 49 48 45 42 38 35 32 28 26 28 32 39 46 46 44 43 43 43 43 42 43 44 45 45 46 46 46 46 44 40 38 37 38 39 38 36 33 29 28 27 26 24 24 23 22 21 20 20 20 19 20 20 21 22 22
55 57 56 55 55 53 52 52 51 50 50 49 49 52 55 57 55 53 53 54 55 53 50 48 49 48 46 47 49 48 47 46 44 43 40 36 34 30 26 27 30 36 44 47 46 46 46 46 46 45 45 47 48 48 47 46 46 47 47 44 41 39 39 39 38 35 32 29 28 27 25 24 23 22 21 20 19 18 18 18 19 19 20 21 21
49 52 51 51 51 50 48 47 46 46 47 46 46 46 48 52 56 56 53 51 50 49 47 45 47 48 45 45 45 44 44 43 42 42 41 37 35 32 28 27 28 33 41 46 48 47 46 46 47 47 47 48 49 49 49 47 47 48 48 46 44 41 39 38 37 34 31 29 27 26 24 23 22 21 20 19 18 17 17 17 17 18 19 19 20
48 50 50 50 49 48 46 45 43 42 41 40 40 39 38 40 45 49 50 47 44 42 39 38 41 42 41 41 42 41 42 41 40 40 39 36 34 31 28 27 28 31 40 47 50 50 48 47 48 48 48 49 49 50 50 49 48 47 47 46 43 41 40 39 36 32 30 28 26 25 24 22 21 19 18 17 17 16 16 16 16 17 18 18 19
45 47 47 47 47 47 45 43 41 39 38 37 36 36 35 34 34 37 40 39 37 35 34 34 34 35 36 37 38 38 38 39 40 39 37 34 32 29 26 26 27 32 41 49 52 51 50 48 47 47 48 48 49 50 51 51 50 48 47 45 42 41 40 39 35 31 29 27 26 25 23 21 20 18 18 17 16 15 14 15 15 16 17 17 19
44 45 44 44 44 44 43 41 41 42 42 41 40 38 37 36 35 36 36 35 34 34 33 31 29 29 30 31 33 35 35 35 37 37 34 31 29 25 24 26 29 35 43 49 51 51 50 49 48 48 48 48 48 49 50 51 51 49 47 45 43 42 40 37 34 31 29 27 26 24 21 20 19 18 17 16 15 14 14 14 14 15 16 16 19
43 44 44 43 43 44 45 45 46 46 44 42 40 39 38 38 37 37 36 36 38 40 39 36 31 28 27 27 28 31 32 32 33 34 33 30 26 24 27 33 35 39 45 50 50 50 49 50 49 49 48 47 47 48 49 50 50 48 45 44 42 41 40 36 33 31 29 26 24 22 20 19 19 18 16 15 13 13 13 13 13 14 15 16 18
40 41 42 42 43 43 44 42 40 38 36 34 33 33 33 34 34 34 33 33 34 35 36 35 32 30 29 28 26 26 28 29 29 31 32 30 26 26 32 36 38 40 43 47 48 48 48 49 49 49 48 47 46 47 47 47 47 45 43 42 41 39 38 35 32 30 28 25 23 21 19 19 18 16 15 13 13 12 12 12 12 13 14 15 17
38 39 39 39 39 39 39 39 37 35 34 34 33 34 34 33 33 32 32 32 32 31 31 31 30 30 31 30 25 22 22 25 27 30 32 30 28 30 33 37 38 39 41 45 48 49 48 48 49 49 48 46 45 44 44 44 44 43 41 40 39 37 35 34 32 30 28 25 23 21 19 18 17 15 14 13 12 11 11 11 12 13 13 14 16
37 37 36 36 36 36 36 36 35 34 33 32 32 32 33 33 32 31 31 31 31 30 31 32 32 30 29 27 24 22 22 24 27 31 33 33 32 32 34 37 38 39 40 44 49 49 48 48 49 47 45 44 42 41 40 41 41 40 39 38 38 37 35 34 32 30 27 24 23 21 19 17 16 15 13 12 12 11 11 11 11 13 13 14 15
36 36 35 35 35 35 33 31 31 30 29 29 28 28 28 28 28 28 29 30 31 31 31 31 31 30 27 25 24 24 25 26 28 31 34 34 34 33 34 36 38 39 40 43 47 48 48 49 48 45 42 41 39 38 37 38 39 38 37 37 37 36 34 32 29 27 25 24 22 20 18 17 15 14 12 12 12 11 11 11 11 12 13 14 15
36 37 36 35 34 34 33 32 32 32 32 32 32 31 31 31 30 30 29 30 31 31 31 31 30 28 27 26 25 25 26 27 28 31 35 36 35 34 34 35 37 39 40 41 43 46 48 48 44 40 38 38 37 35 35 36 37 37 36 36 35 33 32 30 28 26 24 22 21 19 17 16 14 13 12 12 11 11 11 12 11 11 12 13 15
35 36 36 34 33 33 34 33 33 32 32 32 32 32 31 31 31 31 32 32 31 31 30 29 28 27 27 26 24 23 25 26 28 30 34 36 36 34 34 35 37 39 40 40 42 44 46 43 39 35 34 34 34 33 33 34 35 35 36 35 34 32 30 29 27 25 23 21 19 18 16 15 13 12 11 11 11 11 11 12 12 12 12 14 15
34 34 34 33 33 33 32 32 32 31 31 31 30 29 29 29 28 27 28 29 29 29 28 28 28 26 26 25 23 21 23 26 28 29 32 34 34 34 34 35 36 37 37 38 39 39 38 37 35 32 30 30 30 30 31 33 34 34 34 33 31 30 28 26 25 23 22 20 18 17 15 13 12 11 10 10 11 12 12 12 13 13 13 14 16
33 33 33 32 32 31 31 31 31 30 30 29 29 28 27 26 25 25 24 24 25 25 26 27 27 25 24 23 21 19 20 24 27 29 30 32 33 33 34 35 35 34 33 32 32 32 32 32 31 29 28 28 28 28 29 31 32 32 31 30 29 27 26 24 22 21 19 18 16 15 13 12 11 10 10 10 11 12 13 13 13 13 14 15 17
31 30 30 29 29 30 30 29 29 28 28 27 26 26 24 22 21 20 20 20 21 21 23 24 23 22 22 20 18 16 18 23 26 28 29 30 31 32 32 32 32 31 29 28 27 28 29 29 29 28 28 28 28 29 29 29 29 28 27 26 25 24 23 22 20 19 17 16 15 13 12 11 10 9 10 11 12 13 13 13 13 14 14 15 17
28 27 26 26 26 27 27 25 24 23 23 22 22 22 20 18 17 18 18 18 19 19 20 21 20 18 17 17 15 15 18 21 24 25 27 27 27 28 29 29 28 27 25 24 24 25 26 27 27 27 27 28 29 30 30 30 29 27 25 24 23 21 20 19 18 17 15 14 13 12 11 10 10 10 10 11 12 13 14 14 14 14 15 16 18
26 25 25 24 23 24 24 22 20 19 18 18 18 18 17 16 16 16 17 17 17 17 17 17 16 14 14 14 13 14 17 19 21 22 23 24 24 24 25 25 24 23 22 22 24 25 25 25 24 25 26 29 31 31 30 29 27 26 24 22 21 20 18 17 16 15 14 13 12 11 10 10 9 10 11 12 13 14 14 14 14 15 16 17 19
25 25 25 24 22 21 21 21 19 18 17 17 16 16 15 14 13 13 14 14 14 13 13 12 11 11 12 12 12 14 16 18 18 19 20 20 19 20 20 20 20 21 23 24 25 24 23 22 23 24 27 29 30 29 28 26 25 23 21 20 19 17 16 15 14 13 12 11 10 10 9 10 10 11 12 13 13 14 14 14 15 18 18 18 19
24 24 24 24 23 21 20 19 18 16 14 13 12 11 10 9 9 8 8 8 8 8 8 9 9 9 10 11 11 12 14 15 16 17 17 16 16 17 18 19 20 22 24 25 25 24 23 24 25 26 27 27 27 26 25 23 22 20 19 17 16 15 14 14 13 11 11 10 9 9 9 10 10 11 13 14 14 14 14 15 17 19 19 19 20
24 24 24 24 24 23 22 20 19 18 16 14 12 10 8 7 6 4 4 4 4 4 5 6 6 7 8 9 10 11 12 13 14 15 15 14 15 18 21 22 24 24 24 24 25 25 26 27 28 28 27 25 24 23 21 20 19 18 16 15 14 13 12 12 11 10 9 9 9 9 9 10 11 12 14 15 15 14 15 17 19 20 20 20 21
26 25 24 24 24 24 24 23 22 21 19 17 15 13 11 9 7 5 4 3 2 1 2 3 4 5 6 7 8 9 11 12 13 15 15 16 18 20 22 23 24 24 24 24 26 27 28 28 27 26 25 23 21 20 19 17 16 15 14 13 12 11 10 9 9 8 8 8 8 9 10 11 12 14 15 15 14 14 17 20 21 20 20 21 23
Wind_Direction
353 354 355 355 353 348 340 328 312 300 292 287 284 284 283 282 282 281 279 276 274 273 272 270 269 267 265 262 260 258 257 255 254 252 251 250 248 247 245 244 243 242 241 239 239 238 238 237 237 237 236 236 236 236 235 234 234 234 234 236 238 240 241 242 245 248 252 256 257 257 259 260 262 263 264 268 275 280 286 289 292 296 299 306 313
358 353 352 352 351 350 345 338 328 315 306 298 293 291 289 287 286 284 282 279 278 276 274 273 272 270 268 266 263 260 258 256 254 253 252 251 249 248 246 245 244 243 241 240 239 238 237 237 237 236 236 236 236 236 235 235 235 234 235 236 237 239 240 241 242 243 247 252 255 256 256 256 258 261 261 264 269 275 279 281 284 287 290 295 301
5 0 356 354 353 351 348 343 335 325 316 307 300 295 293 291 288 285 282 281 279 277 276 274 273 271 270 268 266 263 260 257 254 253 253 252 251 249 248 247 245 243 242 241 240 238 237 237 236 236 236 235 235 235 235 235 235 235 235 236 236 237 239 239 240 241 244 249 252 253 253 252 253 255 257 257 259 265 270 273 276 279 281 285 290
6 4 1 360 357 355 353 351 345 337 327 316 306 298 293 290 289 287 284 282 279 278 277 275 272 271 269 268 267 265 263 260 257 254 253 253 252 251 249 248 247 245 244 243 242 240 239 238 237 236 235 235 235 235 235 234 234 235 235 234 235 236 237 238 239 240 242 245 248 250 251 249 246 247 251 253 255 260 264 267 270 273 276 281 284
2 1 1 0 360 359 358 356 354 349 342 332 321 311 302 295 292 290 288 286 282 279 277 275 273 271 269 269 268 267 266 264 261 258 255 253 253 252 251 249 248 247 246 245 243 242 241 240 239 237 236 236 236 235 235 235 235 235 235 234 234 235 236 238 239 239 239 241 246 248 247 245 243 243 246 250 254 258 261 262 264 267 271 275 278
356 356 356 357 358 359 359 359 358 356 351 345 338 327 315 305 298 294 292 291 288 284 280 276 274 273 273 273 270 268 266 265 264 262 259 255 253 252 252 251 250 248 247 246 244 243 242 241 240 239 238 237 237 237 236 236 236 236 235 235 235 236 237 237 238 238 238 238 242 246 246 244 243 244 247 252 255 258 260 261 263 265 268 270 272
351 351 351 352 353 355 357 358 357 356 355 353 349 343 333 319 306 298 295 292 291 289 285 281 278 276 276 275 272 270 267 265 265 263 260 257 254 252 251 251 251 249 247 246 245 244 243 242 241 240 239 239 239 239 238 237 237 237 237 237 236 236 236 237 237 238 238 238 240 244 246 245 244 245 248 252 255 258 262 264 264 265 267 267 268
349 348 347 348 348 350 352 353 352 352 352 352 353 352 348 338 323 307 298 292 291 290 288 287 284 280 278 275 272 270 267 266 265 262 260 258 255 252 250 250 250 249 248 246 245 244 243 242 241 241 241 241 240 240 240 239 239 238 237 237 236 236 236 237 237 237 237 238 239 241 243 244 245 245 247 251 256 259 262 264 265 266 268 269 271
346 345 345 344 344 345 345 345 346 347 346 347 349 351 351 350 342 328 311 298 292 290 289 288 285 282 280 276 273 270 267 266 265 262 260 258 256 254 251 249 249 249 248 247 245 244 242 241 241 241 241 240 240 240 240 240 240 240 239 237 236 236 236 236 237 237 237 237 237 237 238 240 243 245 246 251 255 256 258 263 267 268 269 271 275
342 341 341 341 340 339 338 338 339 340 341 342 343 345 346 348 348 344 334 317 301 293 290 288 286 284 281 278 275 272 269 268 265 263 261 259 258 256 253 251 249 248 248 247 246 245 243 241 240 240 240 239 239 239 239 239 239 240 241 240 239 237 236 236 236 237 237 238 237 236 236 239 243 245 247 249 250 251 256 262 268 271 273 276 280
338 337 337 337 337 335 334 333 333 333 334 335 337 339 340 341 343 344 343 337 323 305 293 287 288 288 285 281 277 274 272 270 267 265 263 260 258 256 254 253 250 249 248 248 247 246 244 242 240 238 238 237 237 237 237 237 237 237 238 239 239 240 239 239 238 238 238 239 238 237 237 239 242 244 245 246 248 251 256 261 266 272 276 279 287
334 333 332 332 333 333 332 331 330 329 329 329 330 332 334 335 337 338 339 341 337 327 311 297 291 289 288 284 280 276 275 272 269 267 264 262 259 257 255 254 252 250 248 248 249 247 246 244 242 239 237 236 235 234 234 234 234 234 235 235 235 236 238 239 240 239 239 239 239 238 239 240 241 243 244 246 250 253 257 260 265 271 274 279 287
329 329 328 329 329 330 330 330 330 330 328 327 325 326 327 329 332 333 333 334 336 334 328 315 301 292 289 286 283 280 278 275 272 268 266 263 261 258 256 254 253 251 250 249 249 249 247 246 243 241 239 237 235 233 232 232 231 231 231 232 232 232 233 234 236 237 239 239 239 239 241 242 243 244 245 247 250 254 257 260 266 270 274 279 288
324 324 324 324 325 326 327 328 329 329 329 328 325 323 322 323 325 328 328 328 329 331 331 327 315 302 292 288 285 283 281 277 274 270 267 265 262 259 257 255 253 253 252 250 250 249 249 248 245 244 241 238 236 234 232 231 230 229 228 228 229 229 230 231 232 234 236 237 237 237 239 242 243 243 244 247 251 255 258 262 266 270 274 280 288
320 320 320 320 321 322 323 325 326 327 328 328 326 324 322 320 320 322 322 323 324 324 326 327 322 312 299 291 287 284 282 280 276 272 269 266 263 260 257 255 253 253 252 251 249 249 249 249 247 246 244 242 239 236 234 231 230 229 228 227 228 228 229 231 232 233 236 237 236 236 238 241 242 241 243 247 252 256 259 263 267 271 276 282 288
313 314 314 315 317 318 319 320 321 323 324 324 325 325 324 322 321 320 318 317 317 318 320 321 321 318 308 296 288 283 282 281 279 276 272 268 264 260 257 254 253 253 252 251 249 248 247 247 247 247 245 244 242 239 236 234 231 230 229 228 229 229 229 230 231 233 235 236 236 237 238 241 241 240 242 247 252 255 258 263 268 273 278 282 288
307 308 308 308 310 312 315 316 317 318 319 320 320 321 322 322 322 321 318 315 313 314 315 315 316 317 314 306 295 287 284 282 280 277 275 271 265 260 256 254 253 252 252 251 250 249 248 247 247 247 247 245 243 240 237 234 231 230 229 228 228 228 228 228 229 231 234 235 236 238 238 238 238 239 241 245 249 252 257 263 268 272 276 280 286
304 304 302 302 303 306 308 310 312 313 314 315 315 316 317 318 318 319 318 315 313 311 310 310 311 312 314 312 305 295 287 284 281 277 275 272 267 261 257 254 253 253 251 250 249 249 248 248 248 247 247 246 244 241 238 234 231 229 228 228 227 228 227 226 226 229 231 232 234 235 235 235 236 238 240 241 245 249 255 261 264 267 272 276 283
304 302 299 299 299 300 301 303 304 306 307 309 310 312 313 314 315 315 315 314 313 311 308 307 306 306 308 310 309 303 294 287 281 277 274 271 267 263 257 254 253 252 250 248 248 247 247 247 247 246 246 246 243 240 238 235 231 229 229 228 228 228 228 227 228 229 230 230 231 232 231 233 234 235 238 240 243 247 253 257 260 264 268 273 280
303 301 298 297 297 296 297 298 299 300 301 303 305 307 308 310 312 313 313 312 312 310 308 306 303 302 302 304 306 305 301 294 284 277 274 271 267 262 257 253 252 251 250 249 248 248 247 247 246 245 244 243 241 239 238 236 233 230 229 229 230 230 230 229 229 229 229 230 231 231 231 233 234 236 237 238 239 243 249 254 257 262 266 271 276
300 298 297 297 296 296 296 296 297 297 298 300 301 302 304 306 308 310 311 311 309 307 306 305 303 300 299 299 300 301 302 300 291 281 273 269 266 262 257 254 253 252 250 250 250 250 248 247 245 244 242 240 238 236 236 236 233 230 230 231 232 233 232 230 228 227 227 229 230 231 232 234 235 235 233 233 235 240 246 251 255 259 263 269 274
294 294 294 294 294 294 295 295 295 295 296 297 298 298 300 302 304 306 307 308 308 306 304 302 301 299 297 296 295 296 298 299 296 288 277 268 264 260 256 254 254 252 250 250 250 249 248 248 247 244 241 240 238 236 234 234 233 230 229 230 231 231 229 228 227 226 226 227 228 230 232 233 233 232 229 230 233 238 242 247 252 257 262 268 274
291 290 290 290 290 291 292 293 293 294 294 295 295 296 297 298 300 302 303 305 305 304 302 301 299 297 296 294 292 292 292 295 296 292 284 271 262 258 254 252 251 250 249 249 250 249 249 249 248 245 243 241 240 237 233 231 231 230 228 228 228 227 226 226 225 226 226 226 227 229 230 231 230 228 227 228 231 235 239 244 249 255 262 269 274
288 287 287 287 287 288 289 290 291 291 292 293 294 294 295 296 297 298 300 301 301 301 300 299 298 296 294 293 291 290 289 291 293 292 288 277 265 257 252 247 246 247 248 249 250 250 249 249 247 245 243 242 241 238 231 227 227 228 226 224 224 224 225 224 223 224 224 225 226 228 229 228 226 225 227 229 232 236 240 244 249 255 262 268 273
286 286 286 286 286 287 287 287 288 289 290 291 292 293 293 294 295 296 296 297 297 297 297 296 295 294 293 291 290 289 288 288 289 289 287 282 271 260 251 245 243 245 246 246 248 248 248 248 248 246 244 242 239 234 227 221 222 226 224 221 223 225 225 223 221 222 223 224 225 227 227 224 223 224 227 229 232 236 239 243 249 256 263 267 272
286 286 285 286 286 286 287 286 286 287 287 288 289 290 291 292 292 293 293 293 293 293 293 292 292 291 289 288 288 287 286 284 285 285 284 280 274 263 252 242 238 241 244 245 245 247 246 246 245 243 240 236 231 227 220 213 215 223 224 223 225 226 224 222 221 221 224 226 226 226 223 220 220 223 226 229 232 236 240 245 251 258 264 269 272
286 285 285 285 285 286 286 286 286 287 286 286 287 287 287 288 288 288 288 288 288 288 287 287 286 286 286 285 284 283 281 280 280 280 279 278 276 269 257 243 234 235 240 241 240 241 241 241 241 239 235 229 224 223 219 211 209 217 222 222 224 225 224 223 224 225 226 226 224 220 216 216 219 222 225 229 232 238 245 250 256 261 265 270 274
285 285 284 285 285 285 286 286 287 287 287 287 287 286 285 285 284 284 283 283 282 282 281 281 280 280 281 281 280 278 277 275 274 276 278 279 279 273 263 248 233 228 232 235 234 234 234 234 233 231 226 220 215 215 217 213 208 210 213 214 217 221 222 221 222 223 223 221 215 211 210 214 218 222 225 230 234 241 249 254 259 264 268 272 277
285 285 285 285 285 285 286 287 287 287 287 287 286 285 284 283 282 281 281 279 277 277 276 276 277 277 276 275 273 272 272 271 272 275 277 278 277 272 266 255 239 228 228 231 229 228 227 225 223 221 217 214 211 210 213 212 209 208 208 207 210 216 221 221 221 220 218 213 209 208 210 214 218 222 226 231 236 243 251 257 262 268 271 275 279
287 286 285 285 285 286 286 286 286 285 285 285 284 283 281 279 277 275 276 277 275 273 272 272 273 273 272 271 270 269 269 270 271 273 272 270 270 267 262 258 246 231 226 227 226 225 223 219 216 216 214 212 210 209 210 210 208 206 205 205 208 215 220 222 222 219 215 211 209 210 211 214 219 223 227 232 238 245 252 259 265 270 274 278 281
289 287 287 286 286 286 285 285 285 284 283 283 283 283 282 280 277 274 274 275 275 273 271 269 268 267 265 266 268 268 267 267 267 267 266 265 265 262 256 254 247 231 224 223 221 219 220 216 213 212 211 210 209 208 209 209 207 205 204 203 207 214 219 221 220 217 213 212 210 210 212 215 219 224 228 234 241 247 254 261 267 271 275 280 285
290 289 288 288 288 287 287 286 286 286 286 286 286 285 286 286 284 280 278 277 277 276 274 270 267 264 260 259 261 262 263 263 262 263 263 262 261 259 254 252 244 229 222 222 217 213 213 214 212 211 209 207 207 206 206 207 206 205 205 204 207 213 218 220 220 217 215 213 210 210 213 214 218 225 230 237 244 250 255 262 266 272 278 283 288
292 291 291 290 290 290 289 287 286 285 285 286 286 284 284 285 285 285 286 286 284 281 276 269 264 262 260 257 255 255 257 259 260 261 261 260 259 256 251 248 241 224 217 218 217 213 211 211 211 211 209 207 206 205 205 206 206 207 208 208 211 215 216 217 218 217 215 213 211 211 212 214 219 226 231 239 247 251 257 264 269 275 281 286 292
294 293 292 292 291 290 289 287 285 284 283 282 281 279 277 276 277 281 287 292 292 288 283 275 267 261 259 258 255 251 250 252 255 258 258 256 256 254 246 241 235 222 216 217 217 214 211 209 209 210 209 208 207 205 205 205 206 207 210 212 215 216 215 214 215 215 213 211 210 211 212 214 220 226 231 239 246 251 259 267 272 278 285 291 297
295 294 293 293 291 289 287 284 283 283 283 282 279 277 275 274 274 274 276 278 278 279 282 283 278 269 260 256 254 251 246 244 247 252 253 251 250 244 233 226 222 218 217 217 216 215 212 210 209 209 209 209 209 208 208 207 207 208 211 212 213 213 214 215 214 213 211 210 209 211 213 216 221 227 231 239 246 252 260 268 274 282 289 295 300
295 293 291 290 287 285 284 283 283 284 284 283 280 277 274 273 274 274 273 271 269 270 272 275 277 275 268 260 255 252 247 242 241 244 246 245 240 227 217 217 216 215 215 215 215 214 213 211 211 211 210 211 212 212 212 210 209 210 210 210 210 211 211 212 211 209 208 207 208 211 215 219 224 229 233 239 245 251 260 269 277 286 294 299 302
298 295 292 289 287 286 285 285 285 285 285 283 281 279 277 274 274 273 272 271 271 272 272 272 273 272 269 266 262 256 250 244 239 238 239 238 232 220 215 216 216 215 214 213 212 213 212 212 212 212 212 213 215 215 215 214 212 210 208 207 208 209 209 207 206 205 205 206 207 211 216 222 227 232 235 240 247 253 263 274 282 289 296 300 304
303 300 297 294 290 288 286 284 282 281 278 275 272 271 271 272 272 272 270 270 271 271 271 273 275 272 269 267 266 263 255 246 238 234 230 227 222 218 216 217 217 216 215 214 213 212 212 212 212 212 212 214 216 218 218 216 212 209 207 205 204 205 204 202 201 201 202 203 205 210 215 221 227 233 238 243 250 259 269 279 288 294 298 303 309
309 307 304 301 296 291 286 283 281 280 278 276 275 274 271 269 269 269 268 269 271 271 270 273 274 272 270 267 265 263 258 247 236 230 224 220 218 217 217 217 217 216 216 216 214 213 212 212 212 211 212 215 217 220 221 217 211 207 206 203 201 199 199 199 199 198 198 200 203 208 212 218 225 232 239 246 254 264 274 283 291 298 304 310 313
314 312 310 307 303 296 289 282 277 275 273 272 274 275 272 268 268 269 269 271 272 273 273 274 272 269 269 267 263 260 256 248 236 229 224 221 219 217 217 218 217 217 218 218 215 212 212 212 211 211 214 216 219 222 222 216 209 205 203 201 199 198 197 197 197 196 197 200 203 206 209 215 223 230 238 249 259 267 277 288 297 303 309 313 315
317 314 312 310 307 301 294 288 283 279 276 272 270 269 267 266 265 267 269 272 275 275 274 273 271 268 267 267 264 259 255 250 240 230 224 223 221 219 218 218 218 220 221 220 217 213 211 210 210 213 217 220 221 221 218 211 206 201 198 196 196 195 194 194 194 195 198 200 201 204 208 213 221 229 239 251 263 271 283 295 303 305 308 313 319
320 316 314 313 311 305 300 297 295 291 285 281 278 275 273 273 271 269 266 266 270 275 276 273 271 270 269 269 265 257 249 247 242 232 225 223 223 220 218 217 219 222 224 224 220 216 212 210 211 214 218 220 220 216 210 204 201 198 195 193 192 191 191 192 193 194 197 199 200 204 209 213 220 231 241 252 265 277 289 298 302 304 307 316 326
323 319 317 316 313 310 306 303 301 297 292 289 287 284 283 282 281 279 274 268 267 271 275 274 272 273 273 272 268 256 243 240 239 234 227 223 221 219 217 218 220 223 225 226 223 219 215 213 212 213 215 218 216 211 204 200 197 195 192 190 189 189 189 191 192 193 196 199 201 204 210 215 222 234 246 258 270 282 293 298 298 302 311 320 328
326 323 321 319 317 315 312 308 304 300 298 296 294 290 287 284 278 276 276 272 267 270 275 276 275 275 274 274 271 259 242 236 235 232 226 222 220 218 217 218 221 224 225 224 222 220 217 213 209 207 207 207 204 199 197 195 192 190 189 187 187 188 189 191 193 195 196 200 202 205 212 219 227 239 253 265 276 286 294 297 299 305 316 324 328
332 328 326 324 323 321 319 314 309 305 302 298 294 291 290 288 284 281 281 276 271 273 279 282 280 277 274 273 270 257 240 235 233 228 223 221 219 217 217 219 222 225 225 221 217 216 212 206 203 201 199 195 190 187 186 185 183 183 185 186 186 188 190 191 194 196 197 200 205 210 216 225 236 247 258 269 281 289 294 298 303 310 318 324 325
340 337 336 334 333 331 330 327 321 313 307 302 298 295 294 294 293 291 289 285 282 283 286 286 283 277 270 265 261 249 238 234 230 224 220 220 219 217 218 220 221 221 218 212 206 203 199 197 198 199 195 190 184 181 180 178 177 178 181 182 184 188 190 191 194 197 199 203 210 216 223 232 244 256 263 273 285 291 293 298 306 314 319 321 320
350 348 348 347 344 341 341 343 342 333 322 315 310 306 305 304 300 294 290 288 288 288 285 281 276 270 261 253 247 241 234 230 226 220 218 220 220 219 219 220 217 211 202 193 189 188 186 186 190 193 190 185 180 177 175 175 176 177 179 181 184 187 190 192 196 198 202 208 215 222 232 244 254 262 271 281 288 292 296 302 310 316 318 315 313
2 1 360 358 356 354 353 354 355 350 341 334 328 321 316 313 308 299 293 288 284 281 277 271 265 259 250 243 238 234 229 224 219 214 214 216 217 215 213 209 201 191 183 176 173 174 174 175 179 182 180 177 174 172 172 173 174 176 179 181 184 187 190 195 198 202 206 214 222 231 244 257 264 270 279 286 288 292 300 309 315 317 315 310 308
12 12 11 10 9 9 8 6 6 3 358 352 346 337 327 320 310 300 292 285 277 270 266 260 255 247 240 235 231 226 221 215 208 204 204 206 202 194 187 181 176 174 171 167 164 164 165 166 167 169 169 168 167 169 170 170 172 175 178 181 184 189 193 198 203 207 213 222 235 246 256 267 274 277 280 284 288 296 306 312 313 312 309 305 306
20 21 21 21 20 20 20 19 19 19 17 15 12 8 1 353 344 335 321 301 279 263 254 248 242 234 230 228 223 215 207 200 193 191 191 188 180 173 168 165 164 164 164 162 160 161 161 161 161 162 163 163 164 165 166 168 170 174 177 180 185 190 196 201 208 216 222 232 247 259 266 273 277 277 278 286 295 303 308 309 308 306 303 301 304
22 25 28 29 29 29 28 28 28 26 25 24 23 22 21 21 22 20 16 7 347 278 230 229 226 218 212 209 201 192 185 178 174 172 170 165 162 162 162 160 159 158 158 158 157 156 156 157 158 159 160 161 161 162 164 166 169 172 176 181 185 191 199 206 214 224 235 245 257 266 271 273 274 276 284 294 301 303 304 304 304 301 299 297 301